TimePDT,TemperatureF,Dew PointF,Humidity,Sea Level PressureIn,VisibilityMPH,Wind Direction,Wind SpeedMPH,Gust SpeedMPH,PrecipitationIn,Events,Conditions,WindDirDegrees,DateUTC
12:15 AM,51.8,51.8,100,30.18,10.0,Calm,Calm,-,N/A,,Clear,0,2012-10-14 07:15:00
12:35 AM,51.8,51.8,100,30.19,10.0,Calm,Calm,-,N/A,,Clear,0,2012-10-14 07:35:00
12:55 AM,51.8,50.0,94,30.19,9.0,Calm,Calm,-,N/A,,Mostly Cloudy,0,2012-10-14 07:55:00
1:15 AM,51.8,51.8,100,30.18,10.0,South,3.5,-,N/A,,Overcast,190,2012-10-14 08:15:00
1:35 AM,51.8,50.0,94,30.18,10.0,Calm,Calm,-,N/A,,Overcast,0,2012-10-14 08:35:00
1:55 AM,53.6,51.8,94,30.17,10.0,Calm,Calm,-,N/A,,Overcast,0,2012-10-14 08:55:00
2:15 AM,53.6,53.6,100,30.17,10.0,Calm,Calm,-,N/A,,Overcast,0,2012-10-14 09:15:00
2:35 AM,53.6,53.6,100,30.17,10.0,Calm,Calm,-,N/A,,Overcast,0,2012-10-14 09:35:00
2:55 AM,53.6,53.6,100,30.17,10.0,Calm,Calm,-,N/A,,Overcast,0,2012-10-14 09:55:00
3:15 AM,55.4,53.6,94,30.17,10.0,Calm,Calm,-,N/A,,Overcast,0,2012-10-14 10:15:00
3:35 AM,57.2,55.4,94,30.16,5.0,SE,5.8,-,N/A,,Overcast,140,2012-10-14 10:35:00
3:55 AM,55.4,55.4,100,30.16,1.0,SSE,8.1,-,N/A,,Overcast,150,2012-10-14 10:55:00
4:15 AM,55.4,55.4,100,30.16,10.0,Calm,Calm,-,N/A,,Overcast,0,2012-10-14 11:15:00
4:35 AM,53.6,51.8,94,30.15,0.5,SE,5.8,-,N/A,,Overcast,140,2012-10-14 11:35:00
4:55 AM,53.6,53.6,100,30.14,0.2,South,3.5,-,N/A,,Overcast,190,2012-10-14 11:55:00
5:15 AM,53.6,51.8,94,30.15,0.2,Calm,Calm,-,N/A,,Overcast,0,2012-10-14 12:15:00
5:35 AM,53.6,53.6,100,30.14,1.0,SSE,4.6,-,N/A,,Overcast,150,2012-10-14 12:35:00
5:55 AM,55.4,53.6,94,30.14,0.8,SE,3.5,-,N/A,,Overcast,140,2012-10-14 12:55:00
6:15 AM,55.4,53.6,94,30.14,1.2,SSE,4.6,-,N/A,,Overcast,160,2012-10-14 13:15:00
6:35 AM,55.4,55.4,100,30.13,0.8,SSE,5.8,-,N/A,,Overcast,150,2012-10-14 13:35:00
6:55 AM,55.4,55.4,100,30.13,3.0,SSE,10.4,-,N/A,,Overcast,160,2012-10-14 13:55:00
7:15 AM,55.4,53.6,94,30.14,10.0,South,6.9,-,N/A,,Overcast,180,2012-10-14 14:15:00
7:35 AM,55.4,53.6,94,30.13,10.0,South,3.5,-,N/A,,Overcast,170,2012-10-14 14:35:00
7:55 AM,55.4,53.6,94,30.13,10.0,SSW,3.5,-,N/A,,Overcast,200,2012-10-14 14:55:00
8:15 AM,55.4,55.4,100,30.13,10.0,SE,6.9,-,N/A,,Overcast,140,2012-10-14 15:15:00
8:35 AM,55.4,53.6,94,30.13,10.0,SSE,6.9,-,N/A,,Overcast,160,2012-10-14 15:35:00
8:55 AM,57.2,55.4,94,30.13,10.0,SSE,5.8,-,N/A,,Overcast,150,2012-10-14 15:55:00
9:15 AM,59.0,57.2,94,30.13,10.0,SSE,5.8,-,N/A,,Overcast,160,2012-10-14 16:15:00
9:35 AM,60.8,57.2,88,30.13,10.0,SSE,10.4,-,N/A,,Overcast,150,2012-10-14 16:35:00
9:55 AM,60.8,57.2,88,30.13,10.0,SSE,12.7,17.3,N/A,,Overcast,160,2012-10-14 16:55:00
10:15 AM,60.8,57.2,88,30.13,10.0,SSE,17.3,-,N/A,,Mostly Cloudy,150,2012-10-14 17:15:00
10:35 AM,60.8,57.2,88,30.13,10.0,SE,12.7,-,N/A,,Mostly Cloudy,140,2012-10-14 17:35:00
10:55 AM,62.6,57.2,82,30.13,10.0,SSE,9.2,-,N/A,,Overcast,150,2012-10-14 17:55:00
11:15 AM,62.6,57.2,82,30.13,10.0,SSE,10.4,-,N/A,,Overcast,150,2012-10-14 18:15:00
11:35 AM,62.6,57.2,82,30.13,10.0,SSE,10.4,-,N/A,,Overcast,150,2012-10-14 18:35:00
11:55 AM,64.4,57.2,77,30.13,10.0,SE,12.7,-,N/A,,Overcast,140,2012-10-14 18:55:00
12:15 PM,64.4,57.2,77,30.13,10.0,SE,11.5,-,N/A,,Overcast,130,2012-10-14 19:15:00
12:35 PM,64.4,59.0,83,30.12,10.0,SE,11.5,-,N/A,,Overcast,140,2012-10-14 19:35:00
1:15 PM,64.4,59.0,83,30.12,10.0,SSE,12.7,16.1,N/A,,Overcast,150,2012-10-14 20:15:00
1:35 PM,64.4,59.0,83,30.11,10.0,South,6.9,-,N/A,,Overcast,170,2012-10-14 20:35:00
1:55 PM,64.4,57.2,77,30.10,10.0,SE,11.5,-,N/A,,Overcast,140,2012-10-14 20:55:00
2:15 PM,64.4,57.2,77,30.10,10.0,SSE,10.4,-,N/A,,Overcast,160,2012-10-14 21:15:00
2:35 PM,64.4,57.2,77,30.10,10.0,SSE,9.2,-,N/A,,Overcast,160,2012-10-14 21:35:00
2:55 PM,64.4,57.2,77,30.09,10.0,SSE,9.2,-,N/A,,Overcast,160,2012-10-14 21:55:00
3:15 PM,64.4,57.2,77,30.09,10.0,SSE,8.1,-,N/A,,Overcast,160,2012-10-14 22:15:00
3:35 PM,62.6,57.2,82,30.08,10.0,South,10.4,-,N/A,,Overcast,180,2012-10-14 22:35:00
3:55 PM,62.6,59.0,88,30.08,10.0,South,11.5,-,N/A,,Mostly Cloudy,170,2012-10-14 22:55:00
4:15 PM,62.6,57.2,82,30.08,10.0,South,9.2,-,N/A,,Mostly Cloudy,180,2012-10-14 23:15:00
4:35 PM,62.6,57.2,82,30.07,10.0,South,9.2,-,N/A,,Overcast,180,2012-10-14 23:35:00
4:55 PM,62.6,57.2,82,30.07,10.0,South,6.9,-,N/A,,Overcast,170,2012-10-14 23:55:00
5:15 PM,62.6,57.2,82,30.07,10.0,South,5.8,-,N/A,,Overcast,180,2012-10-15 00:15:00
5:35 PM,62.6,57.2,82,30.06,10.0,SSE,6.9,-,N/A,,Overcast,160,2012-10-15 00:35:00
5:55 PM,60.8,57.2,88,30.04,10.0,SSE,11.5,-,N/A,,Overcast,150,2012-10-15 00:55:00
6:15 PM,60.8,57.2,88,30.03,10.0,SE,11.5,-,N/A,,Overcast,140,2012-10-15 01:15:00
6:35 PM,60.8,57.2,88,30.02,10.0,SE,16.1,-,N/A,,Overcast,140,2012-10-15 01:35:00
6:55 PM,60.8,57.2,88,30.01,10.0,SSE,12.7,-,N/A,,Overcast,150,2012-10-15 01:55:00
7:15 PM,60.8,57.2,88,30.00,10.0,SSE,10.4,-,N/A,,Overcast,150,2012-10-15 02:15:00
7:35 PM,60.8,57.2,88,29.99,10.0,South,9.2,-,N/A,,Overcast,170,2012-10-15 02:35:00
7:55 PM,60.8,57.2,88,30.00,10.0,South,9.2,-,N/A,,Overcast,170,2012-10-15 02:55:00
8:15 PM,60.8,57.2,88,30.04,10.0,West,4.6,-,N/A,,Overcast,270,2012-10-15 03:15:00
8:35 PM,60.8,57.2,88,30.03,9.0,SSW,9.2,-,N/A,,Mostly Cloudy,200,2012-10-15 03:35:00
8:55 PM,60.8,57.2,88,30.01,10.0,South,11.5,20.7,0.01,,Overcast,190,2012-10-15 03:55:00
9:15 PM,59.0,57.2,94,30.00,10.0,SE,8.1,-,0.03,,Overcast,140,2012-10-15 04:15:00
9:35 PM,60.8,57.2,88,30.01,10.0,SSE,9.2,-,0.03,,Overcast,150,2012-10-15 04:35:00
9:55 PM,60.8,57.2,88,30.00,10.0,SSE,11.5,-,0.04,,Mostly Cloudy,150,2012-10-15 04:55:00
10:15 PM,60.8,57.2,88,30.00,10.0,SSE,12.7,-,N/A,,Overcast,150,2012-10-15 05:15:00
10:35 PM,60.8,57.2,88,30.01,9.0,SSE,11.5,-,0.04,,Overcast,150,2012-10-15 05:35:00
10:55 PM,60.8,57.2,88,30.00,10.0,SSE,11.5,-,0.06,,Overcast,150,2012-10-15 05:55:00
11:15 PM,60.8,57.2,88,30.00,10.0,SSE,12.7,-,0.01,,Overcast,150,2012-10-15 06:15:00
11:35 PM,59.0,57.2,94,30.01,8.0,SSE,12.7,-,0.03,,Overcast,160,2012-10-15 06:35:00
11:55 PM,59.0,57.2,94,29.99,10.0,SSE,13.8,-,0.07,,Overcast,150,2012-10-15 06:55:00